Weather History for Crestview, FL

Change the Weather History Date:

Thursday, January 3, 2013

  Actual Average Record
Temperature  
Mean Temperature 42 °F -  
Max Temperature 46 °F 60 °F 78 °F (1982)
Min Temperature 36 °F 39 °F 17 °F (1979)
Degree Days  
Heating Degree Days 24    
Moisture  
Dew Point 40 °F    
Average Humidity 85    
Maximum Humidity 93    
Minimum Humidity 76    
Precipitation  
Precipitation 0.01 in - - ()
Sea Level Pressure  
Sea Level Pressure 30.25 in    
Wind  
Wind Speed 5 mph (North)    
Max Wind Speed 10 mph    
Max Gust Speed -    
Visibility 8 miles    
Events Rain    
Averages and records for this station are not official NWS values.
T = Trace of Precipitation, MM = Missing Value Source: NWS Daily Summary

Daily Weather History Graph

Daily Weather History Graph

Search for Another Location

Airport:

Trip Planner

Search our weather history database for the weather conditions in past years. The results will help you decide how hot, cold, wet, or windy it might be!

Date:

Astronomy

Jan. 03, 2013 Rise Set
Actual Time 6:44 AM CST 4:57 PM CST
Civil Twilight 6:17 AM CST 5:23 PM CST
Nautical Twilight 5:47 AM CST 5:53 PM CST
Astronomical Twilight 5:18 AM CST 6:23 PM CST
Moon 11:03 PM CST (1/3) 10:21 AM CST (1/3)
Length of Visible Light 11h 06m
Length of Day
10h 13m
Waning Gibbous, 65% of the Moon is Illuminated
Jan 3
Waning Gibbous
Jan 4
Last Quarter
Jan 11
New
Jan 18
First Quarter
Jan 26
Full

Hourly Weather History & Observations

Time (CST) Temp. Windchill Dew Point Humidity Pressure Visibility Wind Dir Wind Speed Gust Speed Precip Events Conditions
12:53 AM 46.9 °F - 43.0 °F 86% 30.18 in 10.0 mi North 4.6 mph - 0.00 in Rain Light Rain
1:38 AM 46.4 °F 43.5 °F 42.8 °F 87% 30.20 in 6.0 mi NNW 5.8 mph - 0.00 in Rain Light Rain
1:53 AM 46.0 °F 44.8 °F 43.0 °F 89% 30.19 in 6.0 mi North 3.5 mph - 0.00 in Rain Light Rain
2:24 AM 46.4 °F 44.3 °F 42.8 °F 87% 30.19 in 6.0 mi North 4.6 mph - 0.00 in Rain Light Rain
2:45 AM 46.4 °F 44.3 °F 42.8 °F 87% 30.18 in 5.0 mi Variable 4.6 mph - 0.00 in Rain Light Rain
2:53 AM 45.0 °F - 43.0 °F 93% 30.19 in 5.0 mi Calm Calm - 0.00 in Rain Light Rain
3:53 AM 45.0 °F - 42.1 °F 90% 30.19 in 5.0 mi Calm Calm - 0.00 in Rain Light Rain
4:07 AM 44.6 °F 41.4 °F 42.8 °F 93% 30.19 in 5.0 mi North 5.8 mph - 0.00 in Rain Light Rain
4:53 AM 44.1 °F 40.8 °F 42.1 °F 93% 30.20 in 4.0 mi North 5.8 mph - 0.01 in Rain Rain
5:20 AM 44.6 °F 40.7 °F 41.0 °F 87% 30.21 in 7.0 mi North 6.9 mph - 0.00 in Rain Light Rain
5:53 AM 44.1 °F 39.5 °F 41.0 °F 89% 30.22 in 8.0 mi North 8.1 mph - 0.00 in Rain Light Rain
6:03 AM 44.6 °F 40.7 °F 41.0 °F 87% 30.21 in 7.0 mi North 6.9 mph - 0.00 in Rain Light Rain
6:11 AM 44.6 °F 41.4 °F 41.0 °F 87% 30.22 in 6.0 mi North 5.8 mph - 0.00 in Rain Light Rain
6:35 AM 44.6 °F 42.2 °F 41.0 °F 87% 30.24 in 8.0 mi North 4.6 mph - 0.00 in Rain Light Rain
6:53 AM 44.1 °F - 41.0 °F 89% 30.23 in 6.0 mi Calm Calm - 0.00 in Rain Light Rain
7:53 AM 44.1 °F 42.5 °F 41.0 °F 89% 30.25 in 7.0 mi North 3.5 mph - 0.00 in Rain Light Rain
8:03 AM 44.6 °F 41.4 °F 41.0 °F 87% 30.24 in 6.0 mi North 5.8 mph - 0.00 in Rain Light Rain
8:12 AM 44.6 °F 40.7 °F 41.0 °F 87% 30.25 in 5.0 mi NNW 6.9 mph - 0.00 in Rain Light Rain
8:53 AM 43.0 °F 38.2 °F 39.9 °F 89% 30.27 in 4.0 mi North 8.1 mph - N/A Rain Rain
9:12 AM 42.8 °F 38.0 °F 39.2 °F 87% 30.28 in 5.0 mi North 8.1 mph - N/A Rain Light Rain
9:53 AM 43.0 °F 38.8 °F 39.9 °F 89% 30.27 in 6.0 mi North 6.9 mph - N/A Rain Light Rain
10:01 AM 42.8 °F 39.3 °F 39.2 °F 87% 30.27 in 6.0 mi North 5.8 mph - N/A Rain Light Rain
10:09 AM 44.6 °F 42.2 °F 41.0 °F 87% 30.26 in 6.0 mi NE 4.6 mph - N/A Rain Light Rain
10:48 AM 44.6 °F 40.2 °F 41.0 °F 87% 30.27 in 10.0 mi North 8.1 mph - N/A   Mostly Cloudy
10:53 AM 45.0 °F 40.6 °F 41.0 °F 86% 30.27 in 10.0 mi North 8.1 mph - N/A   Overcast
11:21 AM 46.4 °F 41.9 °F 41.0 °F 81% 30.25 in 10.0 mi North 9.2 mph - N/A   Overcast
11:53 AM 46.0 °F 43.9 °F 42.1 °F 86% 30.24 in 10.0 mi NNE 4.6 mph - N/A   Overcast
12:53 PM 46.9 °F - 41.0 °F 80% 30.24 in 10.0 mi NNW 10.4 mph - N/A   Overcast
1:53 PM 46.0 °F 41.4 °F 39.9 °F 79% 30.23 in 8.0 mi North 9.2 mph - N/A   Overcast
2:09 PM 46.4 °F 42.9 °F 39.2 °F 76% 30.22 in 8.0 mi North 6.9 mph - N/A   Overcast
2:53 PM 46.9 °F - 39.9 °F 77% 30.25 in 9.0 mi North 6.9 mph - N/A   Overcast
3:27 PM 46.4 °F 42.9 °F 39.2 °F 76% 30.25 in 9.0 mi North 6.9 mph - N/A   Mostly Cloudy
3:43 PM 46.4 °F 42.9 °F 39.2 °F 76% 30.27 in 9.0 mi North 6.9 mph - N/A   Scattered Clouds
3:53 PM 46.0 °F 41.0 °F 39.9 °F 79% 30.26 in 10.0 mi North 10.4 mph - N/A   Scattered Clouds
4:53 PM 45.0 °F 43.5 °F 39.0 °F 80% 30.27 in 9.0 mi North 3.5 mph - N/A   Partly Cloudy
5:53 PM 43.0 °F 41.3 °F 39.0 °F 86% 30.30 in 9.0 mi NNW 3.5 mph - N/A   Clear
6:53 PM 42.1 °F 40.2 °F 37.9 °F 85% 30.31 in 9.0 mi North 3.5 mph - N/A   Clear
7:53 PM 41.0 °F 37.1 °F 37.0 °F 86% 30.32 in 8.0 mi North 5.8 mph - N/A   Clear
8:53 PM 39.9 °F 36.7 °F 35.1 °F 83% 30.34 in 10.0 mi NNW 4.6 mph - N/A   Clear
9:53 PM 39.0 °F 35.7 °F 34.0 °F 82% 30.35 in 10.0 mi North 4.6 mph - N/A   Clear
10:53 PM 37.0 °F 34.5 °F 32.0 °F 82% 30.34 in 10.0 mi North 3.5 mph - N/A   Clear
11:53 PM 36.0 °F - 30.9 °F 82% 30.34 in 10.0 mi Calm Calm - N/A   Clear